Temp_Advection
nan nan nan nan nan nan nan nan nan nan nan nan nan nan nan nan nan nan nan nan nan nan nan nan nan nan nan nan nan nan nan nan nan nan nan nan nan nan nan nan nan nan nan
nan 0 1 1 0 0 0 -0 -0 -0 0 0 0 0 -0 -0 -0 0 -0 -0 -0 -0 -0 -0 -0 -0 -0 -0 -0 0 -0 -0 -0 -0 -0 -0 -1 -1 -0 -0 -1 -0 nan
nan 0 0 0 1 0 0 -0 -0 0 0 0 0 0 0 0 -0 -0 -0 0 0 -0 -0 -0 -0 -0 -0 -0 -0 0 0 -0 -0 -0 -0 -1 -0 -1 -1 -0 -0 -0 nan
nan -0 -0 0 -0 0 0 0 0 0 0 0 0 0 0 -0 -0 -0 -0 -0 0 -0 -0 -0 0 0 -0 -0 -0 0 0 -0 -0 -0 -0 -0 -0 -1 -1 -1 -0 -0 nan
nan -0 -0 -0 0 0 0 1 0 0 0 0 0 0 0 -0 -0 -0 -0 -0 -0 -0 -0 -0 -0 -0 -0 -0 0 0 0 -0 -0 -0 -0 -0 -0 -0 -0 -1 -1 -0 nan
nan -0 0 -0 0 1 1 1 0 0 0 0 0 0 0 -0 -0 -0 -0 -0 -0 -0 -0 -0 -0 -0 -0 -0 0 0 0 0 -0 -0 -0 -0 -0 -0 -0 -0 -0 -1 nan
nan 0 0 0 -0 0 0 0 0 0 0 0 0 -0 -0 -0 -0 -0 -0 -0 -0 -0 -0 -0 -0 -0 -0 0 1 0 1 0 -0 -0 -0 -0 -0 -0 -0 -0 -0 -1 nan
nan 0 0 -0 0 0 0 0 0 -0 0 0 -0 -0 -0 0 -0 -0 -0 -0 -0 -0 -0 -0 -0 -0 0 0 0 0 0 0 -0 -0 0 -0 -0 -0 -0 -0 -0 -0 nan
nan 0 0 0 0 0 0 0 0 0 -0 -0 0 0 0 -0 0 -0 -0 -0 -0 -0 -0 -0 -0 0 0 0 0 0 -0 0 0 0 0 -0 -0 -0 -0 -0 -0 0 nan
nan 0 0 1 1 0 0 0 0 0 0 0 0 0 0 0 0 0 -0 -0 -0 -0 -0 -0 -0 0 0 0 -0 0 0 0 -0 0 0 -0 0 -0 -0 -0 -0 -0 nan
nan 0 1 1 1 1 1 0 0 0 0 0 0 0 0 0 0 0 0 0 -0 -0 -0 -0 -0 -0 0 0 0 0 0 0 0 0 0 -0 -0 0 -0 -0 -0 -0 nan
nan 1 1 1 1 1 0 0 1 0 0 0 0 0 0 0 0 0 0 0 0 -0 -0 -0 -0 -0 -0 0 0 0 0 0 0 0 0 -0 -0 -0 -0 -0 -0 -0 nan
nan 1 1 1 1 1 0 0 0 0 0 0 0 -0 0 0 0 0 0 0 0 0 -0 -0 -0 0 0 -0 -0 0 0 0 -0 -0 0 -0 -0 -0 -0 -0 -0 -0 nan
nan 1 1 1 1 0 0 0 0 1 0 -0 -0 0 0 0 0 0 0 0 0 0 -0 0 0 0 -0 -0 0 0 0 0 0 0 -0 0 0 0 0 -0 -1 -1 nan
nan 2 2 1 1 0 0 0 0 0 0 0 0 1 1 0 0 0 0 0 0 0 -0 0 0 0 -0 0 0 0 -0 -0 0 0 0 0 0 1 1 0 -0 -1 nan
nan 2 1 1 1 0 0 0 1 0 0 0 0 0 0 0 0 0 0 0 0 0 0 0 0 0 0 0 -0 0 0 -0 -0 0 0 0 0 0 1 0 0 -0 nan
nan 1 1 1 0 1 1 1 1 0 0 0 0 0 0 0 0 0 0 0 0 0 0 0 0 0 0 0 0 0 0 0 -0 0 0 -0 0 0 0 0 0 -0 nan
nan 1 1 1 1 1 1 1 0 0 0 1 0 0 0 0 0 0 0 0 0 0 0 0 0 0 0 0 0 0 0 0 -0 0 0 -0 -0 0 0 1 -0 -1 nan
nan 1 1 1 1 1 1 1 0 1 1 0 0 0 0 0 0 0 0 0 0 0 0 0 0 0 0 1 0 0 0 0 0 -0 0 0 0 -0 -0 1 0 -1 nan
nan 1 1 1 1 1 1 1 1 1 0 0 0 0 0 0 0 0 0 0 0 0 0 1 1 0 0 0 0 0 0 0 0 -0 0 0 0 0 0 0 1 -0 nan
nan 1 1 1 1 1 1 1 1 0 0 0 0 0 -0 0 0 -0 -0 -0 0 0 1 1 1 0 0 0 -0 0 0 0 0 0 -0 0 -0 -0 0 0 0 0 nan
nan 1 1 1 1 1 1 1 1 0 -0 0 0 0 0 0 0 -0 -0 -0 -0 0 1 1 0 0 0 -0 0 1 0 0 0 0 0 -0 -0 -0 0 0 0 0 nan
nan 1 1 1 1 0 0 0 0 -0 -1 0 1 0 0 0 -0 -0 -0 -0 0 1 1 0 0 0 0 0 0 0 0 0 -0 0 -0 -0 -0 0 0 0 0 0 nan
nan 1 1 0 0 0 0 -0 -0 -0 0 1 0 0 1 0 0 0 -1 -0 0 0 0 0 -0 -0 0 0 1 0 0 0 0 0 -0 -0 -0 -0 -0 0 0 0 nan
nan 0 0 0 -0 -0 0 -0 -0 0 -0 0 1 0 0 0 -0 0 -0 -0 0 0 0 0 0 0 1 0 0 0 0 0 0 0 0 0 -0 0 0 0 0 0 nan
nan nan nan nan nan nan nan nan nan nan nan nan nan nan nan nan nan nan nan nan nan nan nan nan nan nan nan nan nan nan nan nan nan nan nan nan nan nan nan nan nan nan nan
Wind_Speed
15 15 16 17 17 17 17 15 12 9 6 5 5 6 4 4 4 2 1 5 6 6 10 7 10 14 15 16 18 21 21 21 22 23 23 21 22 19 19 18 12 15 18
15 15 16 17 18 17 16 15 12 9 9 7 7 6 4 4 4 1 9 6 7 7 9 12 14 15 17 19 20 19 21 19 18 19 21 24 25 19 19 23 24 24 19
17 16 17 18 18 17 16 14 12 13 12 10 5 4 3 2 1 3 4 7 9 10 13 15 17 18 19 20 21 19 17 18 17 16 19 25 23 27 25 24 25 26 24
17 17 17 18 19 18 16 15 15 13 9 9 8 7 4 1 1 3 6 9 11 13 15 17 19 19 19 20 19 16 14 17 17 18 18 20 23 28 31 24 22 21 23
19 20 21 20 19 18 17 17 15 11 11 10 8 5 4 3 2 4 8 10 12 14 15 16 18 18 18 18 17 16 16 15 17 18 19 18 20 21 24 29 26 23 23
21 21 21 22 20 19 18 17 15 13 11 10 9 7 2 2 2 6 8 10 12 13 14 15 17 17 16 15 15 13 13 13 15 15 15 16 20 21 22 24 25 27 25
22 24 24 22 21 19 18 17 15 13 12 10 8 4 4 4 5 7 8 10 11 12 14 17 16 15 13 12 13 13 19 16 13 14 14 15 17 18 20 22 26 28 27
24 25 24 22 20 19 18 17 16 15 13 11 8 1 1 4 3 7 8 9 11 13 15 15 15 12 11 13 12 15 13 13 14 12 14 14 17 18 20 21 24 28 30
26 26 23 22 20 19 20 19 18 16 14 11 5 9 3 5 5 5 8 9 11 13 13 13 13 12 12 13 14 15 16 17 13 12 15 15 17 19 20 21 22 24 30
25 25 24 22 21 21 21 20 20 17 14 5 5 5 3 1 3 6 9 10 11 12 13 13 12 14 13 17 17 19 17 14 12 15 15 17 18 19 20 22 23 25 30
26 25 24 23 23 22 23 22 20 18 11 7 9 6 5 4 5 6 8 10 12 12 13 13 13 13 16 18 19 19 17 15 14 15 16 18 19 21 22 24 26 28 29
26 25 24 24 24 25 24 24 21 16 12 12 8 8 7 6 7 8 9 11 12 13 13 13 13 15 17 17 16 14 14 16 16 17 18 20 22 23 24 25 26 27 28
26 26 26 26 26 26 26 25 20 16 15 11 10 9 9 8 9 9 10 11 12 13 12 12 14 15 15 14 14 14 15 15 14 15 17 19 22 25 25 23 24 26 27
26 27 27 27 27 27 27 24 19 17 16 14 12 11 11 10 11 11 11 12 13 13 12 12 14 14 13 13 13 14 15 16 19 17 20 22 21 20 20 22 20 20 22
25 28 27 27 27 27 27 23 19 18 17 14 12 11 11 11 12 13 13 13 13 12 12 13 14 12 12 12 13 15 15 14 17 19 20 19 21 27 26 22 18 17 18
24 26 27 27 28 28 28 23 20 19 17 14 12 11 11 12 14 14 14 14 14 13 13 14 15 14 13 16 14 14 15 14 16 19 18 17 17 16 22 18 17 23 20
21 25 27 28 28 28 26 23 21 18 17 13 11 11 11 12 14 14 16 15 15 14 14 14 14 13 14 16 15 15 17 14 17 16 15 15 14 17 15 16 20 19 21
18 22 24 25 25 25 25 22 20 18 15 12 10 11 12 13 15 16 17 17 17 16 15 14 14 12 15 17 19 16 17 14 15 14 13 13 13 15 21 23 18 18 18
15 18 20 21 23 25 24 22 19 16 12 12 12 11 12 14 16 17 17 18 17 17 17 15 13 12 15 20 18 17 18 14 13 12 12 13 13 16 20 22 19 19 18
14 17 18 20 22 23 24 22 21 15 11 12 11 13 13 15 16 17 18 18 18 18 17 15 12 12 14 21 17 16 19 15 12 11 11 14 19 21 21 22 21 18 19
14 14 17 19 19 19 20 17 12 9 9 9 14 12 13 16 17 18 17 18 18 17 14 15 13 11 14 14 17 18 17 14 14 11 10 10 19 19 20 20 19 18 26
13 11 12 10 11 12 12 10 8 6 11 15 11 12 14 15 15 16 17 18 17 14 12 14 11 10 11 16 19 18 14 15 15 14 11 14 17 18 18 18 17 21 17
6 6 10 14 14 9 7 5 3 8 15 18 13 13 14 15 15 16 14 14 13 12 11 11 12 9 11 14 16 17 16 15 13 13 13 16 16 16 16 14 18 19 15
4 8 11 14 11 9 3 2 7 14 18 15 14 15 16 16 21 13 11 14 13 12 12 12 11 10 9 11 14 16 14 14 16 12 15 19 13 15 17 16 13 14 15
9 10 10 9 7 6 2 7 13 15 15 17 16 15 16 14 14 14 13 14 13 14 14 14 13 13 17 11 15 16 14 13 14 18 18 11 12 12 12 12 13 13 13
11 9 8 8 6 3 7 13 15 16 15 15 14 14 14 14 14 15 17 15 15 16 21 21 22 22 20 18 16 15 16 15 16 17 12 12 13 13 12 12 13 13 13
Wind_Direction
174 179 181 183 184 183 177 176 173 174 163 150 139 130 128 126 94 65 342 338 325 338 326 315 315 315 311 309 308 306 304 304 306 303 304 304 306 303 302 305 301 301 299
184 180 180 183 184 183 182 174 177 163 157 155 158 152 145 149 141 20 326 336 337 339 331 317 315 309 309 308 306 304 300 301 307 305 305 310 308 302 308 309 301 300 293
189 182 177 176 176 178 173 172 168 162 161 168 160 156 181 331 65 344 330 322 333 329 322 315 311 307 307 305 303 302 296 300 302 304 305 309 309 308 304 303 300 296 297
186 181 176 174 170 167 166 166 164 165 162 145 161 148 138 97 18 346 313 327 320 319 316 313 311 307 304 303 304 300 291 301 299 302 300 303 303 308 311 305 300 299 298
175 170 167 162 162 165 165 164 163 158 147 144 137 138 126 84 345 333 332 329 320 319 316 314 305 299 301 295 292 288 288 290 296 300 304 306 306 306 305 308 305 300 298
166 165 164 163 164 162 164 164 157 151 144 150 168 173 162 83 9 340 340 328 324 320 318 317 313 306 299 294 288 282 283 280 294 301 306 306 307 306 307 305 304 304 299
171 168 167 167 167 169 167 164 162 157 149 143 140 114 72 38 12 357 339 333 323 323 321 321 316 311 299 285 271 268 266 286 296 300 302 299 302 300 297 298 298 299 298
178 177 177 176 177 176 174 170 168 166 159 153 135 96 356 340 338 341 335 325 324 324 320 319 317 310 289 279 271 285 296 293 297 301 294 299 300 299 296 296 298 301 298
185 186 187 186 186 185 181 176 178 174 162 155 288 307 301 314 327 335 327 323 326 320 315 317 312 292 290 279 301 299 298 290 284 291 298 300 301 301 298 297 292 294 299
192 194 193 192 195 192 189 181 182 178 173 258 287 167 270 277 296 322 327 327 319 317 314 313 306 295 286 292 298 295 293 285 284 297 296 301 303 300 297 294 295 294 295
199 199 197 201 198 194 191 185 182 183 189 186 175 253 201 232 283 311 318 318 315 315 311 307 300 292 289 290 293 291 283 279 284 282 294 305 307 304 300 298 296 294 294
206 206 204 202 198 195 193 188 188 190 187 187 254 200 208 240 281 297 307 309 311 309 306 300 299 299 295 292 292 283 279 284 288 294 301 305 304 303 302 298 296 296 295
211 209 208 205 201 199 196 193 191 192 195 209 199 210 228 254 274 285 294 302 305 305 302 301 301 299 292 291 287 283 281 291 300 298 299 304 304 302 300 297 295 294 294
216 215 211 209 206 203 200 198 195 197 201 201 212 228 237 258 267 274 287 296 300 298 297 296 296 296 294 290 289 291 291 294 292 300 306 304 303 298 292 300 299 299 297
221 219 215 214 210 206 204 202 201 202 201 208 220 234 246 260 268 271 283 287 295 298 296 295 289 282 283 280 282 294 298 299 300 302 303 303 294 296 301 314 306 305 304
223 219 219 218 214 210 208 205 206 201 204 213 222 235 249 263 270 274 282 287 295 298 297 297 295 288 282 265 300 308 300 307 303 304 301 302 304 299 305 318 310 311 306
225 221 221 220 217 214 210 209 205 204 207 218 233 249 261 271 273 278 282 282 289 295 296 297 295 282 280 274 296 295 298 304 305 302 301 303 305 309 301 299 304 306 304
232 229 225 223 220 217 213 211 207 210 213 222 243 261 273 279 281 280 283 283 284 292 293 292 285 283 269 271 286 288 305 303 302 300 300 304 305 304 302 311 314 311 308
246 238 231 225 221 218 213 207 208 215 221 265 255 270 282 284 285 284 286 285 282 288 290 287 281 277 273 273 279 296 306 304 301 300 302 291 305 291 316 321 317 314 313
251 238 229 224 222 219 209 207 205 210 233 243 269 287 293 291 290 290 289 285 279 282 283 274 266 266 254 265 282 296 307 303 302 303 300 306 305 315 316 319 321 315 314
255 238 226 224 223 212 204 202 228 224 236 249 288 292 294 294 291 292 291 285 279 277 272 260 263 260 271 262 281 295 304 302 302 302 303 298 292 314 321 319 318 309 317
255 233 226 214 204 192 199 190 176 223 278 288 286 290 288 290 293 294 294 289 282 271 263 255 259 262 267 279 292 302 292 299 305 306 299 299 311 315 318 321 321 325 335
238 206 184 161 155 144 151 160 242 266 289 286 290 293 294 297 296 294 293 283 271 262 258 252 267 265 273 281 280 297 300 298 308 311 310 313 317 324 332 322 330 345 328
187 163 149 140 139 157 178 359 302 291 287 289 296 297 301 296 305 297 286 278 270 261 254 253 249 265 275 283 273 282 293 301 311 320 303 310 329 333 330 331 323 317 318
108 131 138 126 116 78 13 297 285 284 293 298 302 296 299 297 298 296 293 261 260 258 256 249 248 262 271 288 265 256 266 273 278 292 301 315 306 311 313 316 316 320 318
127 133 106 75 49 352 298 291 291 290 295 301 301 300 293 293 288 294 291 288 280 261 253 248 250 269 283 294 303 273 266 272 282 291 291 294 300 303 309 312 316 317 318
Height
1533 1536 1540 1543 1546 1549 1551 1554 1556 1558 1561 1562 1563 1564 1566 1566 1566 1565 1565 1565 1565 1565 1565 1566 1564 1563 1561 1559 1557 1554 1551 1549 1546 1542 1540 1538 1535 1534 1532 1529 1527 1526 1525
1532 1535 1538 1541 1545 1548 1551 1553 1556 1558 1560 1562 1563 1564 1566 1566 1565 1564 1564 1564 1564 1565 1565 1563 1561 1560 1557 1555 1553 1550 1548 1546 1544 1540 1537 1532 1531 1529 1526 1525 1524 1523 1520
1530 1534 1537 1540 1543 1546 1549 1552 1555 1557 1559 1560 1561 1562 1563 1564 1566 1567 1567 1565 1563 1563 1562 1561 1559 1556 1554 1551 1549 1547 1545 1542 1541 1539 1537 1531 1527 1525 1525 1523 1520 1518 1516
1527 1531 1535 1538 1542 1545 1549 1552 1554 1556 1556 1559 1560 1561 1563 1564 1565 1566 1565 1564 1562 1561 1559 1557 1555 1552 1549 1547 1545 1544 1541 1541 1538 1536 1535 1532 1529 1522 1516 1518 1516 1514 1512
1525 1529 1532 1536 1541 1544 1548 1551 1553 1554 1555 1556 1559 1561 1562 1563 1563 1563 1561 1560 1559 1556 1554 1552 1549 1547 1545 1543 1541 1540 1539 1537 1535 1533 1530 1528 1526 1523 1519 1512 1512 1511 1509
1523 1528 1532 1536 1539 1542 1545 1547 1550 1552 1553 1554 1556 1557 1558 1560 1559 1558 1557 1556 1554 1552 1550 1547 1544 1542 1540 1539 1538 1535 1535 1532 1530 1529 1527 1526 1524 1520 1518 1514 1511 1508 1505
1522 1526 1530 1534 1537 1540 1543 1546 1548 1550 1552 1553 1554 1555 1557 1557 1557 1555 1554 1552 1551 1548 1546 1542 1540 1538 1536 1535 1532 1531 1529 1528 1527 1526 1524 1523 1521 1519 1517 1513 1508 1504 1501
1520 1524 1528 1532 1535 1538 1541 1544 1547 1549 1549 1550 1551 1552 1553 1552 1554 1552 1551 1550 1547 1544 1541 1539 1536 1535 1533 1530 1529 1527 1526 1525 1524 1522 1522 1519 1518 1516 1513 1511 1507 1501 1497
1518 1522 1526 1530 1533 1536 1539 1541 1545 1547 1547 1547 1548 1549 1549 1548 1549 1549 1548 1546 1543 1541 1538 1536 1534 1531 1530 1528 1526 1525 1523 1522 1520 1520 1519 1517 1515 1512 1510 1507 1504 1500 1493
1516 1520 1523 1527 1531 1534 1537 1539 1542 1543 1543 1543 1544 1545 1546 1545 1546 1545 1543 1541 1539 1536 1534 1532 1530 1528 1526 1525 1523 1521 1519 1518 1517 1516 1515 1513 1511 1508 1506 1503 1500 1496 1492
1512 1517 1520 1524 1528 1531 1533 1535 1538 1539 1539 1539 1540 1541 1541 1543 1543 1541 1539 1537 1534 1532 1530 1528 1526 1525 1523 1521 1519 1517 1515 1514 1513 1512 1510 1508 1506 1504 1501 1498 1495 1491 1487
1508 1513 1518 1521 1524 1527 1529 1531 1533 1534 1535 1536 1536 1536 1538 1539 1538 1536 1535 1532 1530 1528 1525 1523 1522 1521 1518 1517 1514 1513 1511 1511 1509 1508 1506 1504 1502 1500 1496 1493 1489 1485 1482
1503 1509 1514 1517 1520 1523 1525 1527 1528 1530 1531 1531 1532 1534 1535 1535 1533 1532 1530 1528 1525 1523 1521 1520 1518 1516 1514 1513 1511 1510 1508 1506 1505 1504 1502 1499 1497 1494 1491 1487 1484 1480 1476
1499 1504 1509 1513 1515 1518 1521 1522 1523 1524 1526 1528 1529 1531 1531 1530 1528 1527 1525 1523 1520 1518 1516 1514 1513 1511 1510 1510 1508 1507 1505 1504 1502 1500 1498 1495 1491 1488 1483 1480 1477 1474 1470
1496 1500 1505 1509 1511 1514 1516 1517 1518 1519 1523 1525 1525 1526 1525 1524 1524 1522 1520 1518 1515 1513 1512 1510 1508 1506 1505 1504 1503 1503 1502 1500 1498 1496 1493 1490 1486 1482 1477 1474 1471 1469 1465
1493 1497 1501 1504 1507 1509 1511 1513 1514 1516 1519 1520 1520 1520 1520 1520 1519 1517 1516 1514 1512 1510 1508 1506 1504 1502 1501 1497 1498 1497 1497 1496 1494 1491 1488 1485 1482 1479 1474 1470 1466 1464 1460
1490 1492 1495 1499 1502 1505 1508 1509 1511 1513 1514 1516 1517 1517 1515 1514 1513 1512 1511 1509 1507 1505 1503 1501 1500 1498 1496 1493 1494 1493 1492 1491 1490 1487 1483 1480 1478 1474 1471 1467 1463 1459 1457
1487 1489 1492 1495 1498 1501 1503 1506 1507 1509 1510 1511 1511 1512 1511 1510 1509 1508 1506 1505 1504 1501 1499 1496 1495 1494 1490 1490 1490 1489 1488 1487 1485 1482 1478 1476 1473 1469 1464 1460 1457 1454 1452
1485 1487 1489 1491 1494 1497 1499 1501 1504 1506 1508 1509 1510 1509 1507 1505 1505 1503 1501 1500 1498 1497 1495 1493 1491 1490 1487 1486 1485 1484 1483 1482 1479 1477 1474 1471 1468 1464 1461 1456 1452 1449 1447
1482 1483 1485 1487 1490 1492 1495 1496 1497 1498 1501 1505 1507 1506 1505 1503 1501 1499 1496 1494 1492 1490 1489 1488 1486 1484 1483 1481 1481 1480 1478 1476 1475 1473 1471 1467 1463 1460 1456 1452 1448 1445 1443
1480 1480 1482 1484 1487 1489 1492 1495 1499 1499 1501 1498 1500 1501 1500 1499 1495 1493 1491 1489 1486 1484 1482 1483 1482 1479 1478 1476 1475 1475 1474 1472 1470 1468 1467 1465 1460 1457 1453 1449 1445 1442 1437
1478 1479 1481 1484 1488 1491 1494 1492 1490 1496 1499 1497 1494 1495 1494 1492 1489 1486 1484 1485 1484 1481 1479 1477 1477 1476 1474 1473 1471 1470 1469 1468 1466 1464 1462 1459 1456 1453 1450 1446 1443 1440 1435
1478 1479 1480 1480 1483 1487 1488 1491 1492 1492 1493 1493 1490 1490 1489 1487 1484 1481 1478 1478 1478 1477 1475 1474 1473 1473 1471 1468 1466 1466 1465 1463 1462 1460 1457 1455 1452 1449 1446 1445 1441 1437 1435
1478 1480 1480 1483 1484 1483 1485 1488 1492 1492 1491 1489 1486 1484 1483 1482 1478 1476 1475 1475 1473 1472 1472 1471 1470 1469 1469 1468 1464 1461 1460 1460 1458 1457 1455 1452 1450 1447 1445 1442 1441 1437 1434
1479 1482 1483 1483 1482 1484 1488 1489 1488 1486 1485 1483 1481 1480 1479 1477 1476 1474 1470 1470 1469 1468 1467 1466 1466 1465 1463 1462 1460 1459 1458 1458 1456 1453 1451 1450 1448 1446 1444 1442 1439 1436 1432
1480 1480 1481 1482 1484 1485 1485 1484 1483 1483 1481 1478 1477 1476 1475 1474 1472 1469 1467 1464 1461 1461 1461 1461 1460 1459 1457 1456 1454 1453 1453 1452 1451 1449 1448 1447 1445 1443 1441 1439 1437 1434 1431